This is the latest recevied weather packets stored in our database for station/object KC1OEK-13. If no packets are shown the sender has not sent any weather packets the latest 10 day(s).
| Time | Temp. | Humidity | Pressure | Rain* | Wind** | Luminosity | Snow |
|---|---|---|---|---|---|---|---|
| 1778193440 | 15° C | 38% | 1009.6 hPa | 0 mm | - | 106 W/m² | - |
| 1778193137 | 14.44° C | 40% | 1009.5 hPa | 0 mm | - | 126 W/m² | - |
| 1778192834 | 13.89° C | 42% | 1009.7 hPa | 0 mm | - | 110 W/m² | - |
| 1778192530 | 13.89° C | 42% | 1009.7 hPa | 0 mm | - | 58 W/m² | - |
| 1778192227 | 13.89° C | 41% | 1009.6 hPa | 0 mm | - | 78 W/m² | - |
| 1778191923 | 13.89° C | 41% | 1009.6 hPa | 0 mm | - | 79 W/m² | - |
| 1778191620 | 13.89° C | 42% | 1009.7 hPa | 0 mm | - | 86 W/m² | - |
| 1778191318 | 13.89° C | 42% | 1009.8 hPa | 0 mm | - | 85 W/m² | - |
| 1778191014 | 13.89° C | 40% | 1009.6 hPa | 0 mm | - | 81 W/m² | - |
| 1778190712 | 15° C | 39% | 1009.7 hPa | 0 mm | - | 91 W/m² | - |
| 1778190409 | 16.11° C | 38% | 1009.5 hPa | 0 mm | - | 254 W/m² | - |
| 1778190105 | 14.44° C | 40% | 1009.4 hPa | 0 mm | - | 255 W/m² | - |
| 1778189801 | 13.89° C | 43% | 1009.5 hPa | 0 mm | - | 74 W/m² | - |
| 1778189499 | 13.89° C | 45% | 1009.6 hPa | 0 mm | - | 61 W/m² | - |
| 1778189194 | 13.89° C | 43% | 1009.5 hPa | 0 mm | - | 67 W/m² | - |
| 1778188891 | 13.89° C | 43% | 1009.4 hPa | 0 mm | - | 75 W/m² | - |
| 1778188589 | 13.89° C | 42% | 1009.4 hPa | 0 mm | - | 71 W/m² | - |
| 1778188284 | 13.89° C | 44% | 1009.4 hPa | 0 mm | - | 80 W/m² | - |
| 1778187982 | 14.44° C | 42% | 1009.4 hPa | 0 mm | - | 83 W/m² | - |
| 1778187678 | 14.44° C | 41% | 1009.4 hPa | 0 mm | - | 75 W/m² | - |
| 1778187375 | 15° C | 40% | 1009.3 hPa | 0 mm | - | 83 W/m² | - |
| 1778187071 | 15° C | 43% | 1009.4 hPa | 0 mm | - | 97 W/m² | - |
| 1778186768 | 14.44° C | 41% | 1009.4 hPa | 0 mm | - | 116 W/m² | - |
| 1778186465 | 15° C | 41% | 1009.4 hPa | 0 mm | - | 183 W/m² | - |
| 1778186163 | 14.44° C | 39% | 1009.4 hPa | 0 mm | - | 104 W/m² | - |
* Rain latest hour (hover to see other rain measurements)
** Current wind speed in m/s (hover to see current wind gust speed)